KB9TWL Weather Reports


time (UTC)temp
F
wind
direction
speed
knots
gust
knots
rain 1hr
in
rain 24hr
in
rain mn
in
humidity
%
barometer
mb
20260505094602 46 288 1.7 7.0 0.00 0.00 0.00 43 1007.9
20260505093027 47 320 1.7 7.8 0.00 0.00 0.00 43 1007.8
20260505091505 46 308 2.6 8.7 0.00 0.00 0.00 46 1007.8
20260505090034 46 313 0.9 3.5 0.00 0.00 0.00 51 1008.1
20260505084524 47 324 2.6 7.0 0.00 0.00 0.00 49 1007.5
20260505083101 47 314 1.7 5.2 0.00 0.00 0.00 48 1006.8
20260505081522 47 338 1.7 7.0 0.00 0.00 0.00 48 1006.7
20260505080059 48 321 3.5 8.7 0.00 0.00 0.00 47 1006.3
20260505074514 48 360 3.5 8.7 0.00 0.00 0.00 47 1005.8
20260505073040 49 334 2.6 9.6 0.00 0.00 0.00 48 1005.5
20260505071602 50 317 2.6 7.0 0.00 0.00 0.00 45 1005.6
20260505070008 51 296 1.7 7.8 0.00 0.00 0.00 44 1005.6
20260505064533 51 360 5.2 12.2 0.00 0.00 0.00 44 1005.2
20260505063057 52 327 5.2 17.4 0.00 0.00 0.00 45 1005.1
20260505061552 52 336 3.5 12.2 0.00 0.00 0.00 46 1004.8
20260505060059 53 334 3.5 8.7 0.00 0.00 0.00 46 1004.7
20260505054542 54 329 4.3 11.3 0.00 0.00 0.00 46 1004.4
20260505053014 55 331 2.6 8.7 0.00 0.00 0.00 44 1004.5
20260505051547 56 240 1.7 8.7 0.00 0.00 0.00 42 1004.0
20260505041552 58 360 3.5 8.7 0.00 0.00 0.00 38 1003.0
20260505040104 59 360 2.6 10.4 0.00 0.00 0.00 36 1002.8
20260505034545 60 360 2.6 10.4 0.00 0.00 0.00 35 1003.0
20260505033011 61 290 2.6 8.7 0.00 0.00 0.00 34 1003.0
20260505031556 61 250 2.6 8.7 0.00 0.00 0.00 34 1002.8
20260505030017 61 247 3.5 9.6 0.00 0.00 0.00 35 1002.3
20260505024558 62 360 1.7 5.2 0.00 0.00 0.00 36 1002.0
20260505023036 63 281 2.6 11.3 0.00 0.00 0.00 34 1001.3
20260505021520 63 226 2.6 11.3 0.00 0.00 0.00 33 1001.6
20260505020005 64 264 4.3 13.0 0.00 0.00 0.00 33 1001.2
20260505014529 65 360 5.2 18.2 0.00 0.00 0.00 33 1000.7
20260505013103 66 360 5.2 13.0 0.00 0.00 0.00 33 1000.0
20260505011502 68 360 4.3 12.2 0.00 0.00 0.00 35 999.2
20260505010058 69 321 4.3 11.3 0.00 0.00 0.00 35 999.0
20260505004602 70 265 3.5 16.5 0.00 0.00 0.00 32 998.7
20260505003044 72 240 5.2 16.5 0.00 0.00 0.00 35 997.9
20260505001508 73 243 4.3 13.0 0.00 0.00 0.00 36 997.5
20260505000106 75 256 6.1 16.5 0.00 0.00 0.00 35 997.4
20260504234519 77 244 6.1 13.9 0.00 0.00 0.00 33 997.2
20260504233105 78 246 7.0 15.6 0.00 0.00 0.00 29 996.9
20260504231524 78 255 4.3 13.0 0.00 0.00 0.00 30 997.0
20260504230053 77 229 2.6 7.0 0.00 0.00 0.00 34 997.1
20260504224518 78 194 4.3 11.3 0.00 0.00 0.00 33 997.3
20260504223102 79 209 4.3 13.9 0.00 0.00 0.00 30 997.3
20260504221528 77 246 4.3 8.7 0.00 0.00 0.00 34 997.3
20260504214536 78 271 4.3 8.7 0.00 0.00 0.00 31 997.3
20260504213112 79 175 3.5 9.6 0.00 0.00 0.00 33 997.4
20260504211543 78 218 4.3 13.0 0.00 0.00 0.00 32 997.6
20260504210004 78 224 3.5 12.2 0.00 0.00 0.00 32 997.7
20260504204555 79 223 7.0 15.6 0.00 0.00 0.00 30 997.8
20260504203022 79 214 7.8 20.9 0.00 0.00 0.00 29 998.0
20260504201544 79 257 4.3 15.6 0.00 0.00 0.00 30 998.2
20260504200049 78 286 8.7 19.1 0.00 0.00 0.00 30 998.3
20260504194508 78 236 7.8 20.0 0.00 0.00 0.00 30 999.0
20260504193102 78 217 3.5 13.0 0.00 0.00 0.00 31 998.8
20260504191528 77 181 4.3 24.3 0.00 0.00 0.00 31 998.9
20260504190010 76 243 4.3 11.3 0.00 0.00 0.00 32 999.2
20260504184545 75 200 1.7 12.2 0.00 0.00 0.00 34 999.2
20260504183023 75 186 4.3 10.4 0.00 0.00 0.00 33 999.4
20260504181603 75 233 3.5 7.8 0.00 0.00 0.00 34 999.5
20260504180024 74 218 3.5 10.4 0.00 0.00 0.00 33 999.3
20260504174506 74 148 3.5 11.3 0.00 0.00 0.00 33 999.5
20260504173031 74 216 4.3 9.6 0.00 0.00 0.00 33 999.8
20260504171509 74 217 4.3 10.4 0.00 0.00 0.00 32 999.9